Tracking 35331 objects as of 15-Sep-2026
HD Live streaming from Space Station
objects crossing your sky now

STARLINK-35524

Track STARLINK-35524 now!
10-day predictions
STARLINK-35524 is classified as:


NORAD ID: 65914
Int'l Code: 2025-225E
Launch date: October 8, 2025
Source: United States (US)
Launch site: AIR FORCE WESTERN TEST RANGE (AFWTR)
Your satellite tracking list
Your tracking list is empty




NASA's NSSDC Master Catalog

Two Line Element Set (TLE):
1 65914U 25225E   26258.33029234  .00020313  00000-0  61098-3 0  9996
2 65914  53.1599   1.9278 0000997  96.7373 263.3743 15.34385198 53481
Source of the keplerian elements: AFSPC